Location: T. Spence Memorial Observatory
(32.7356°N, 82.2098°W)
Time: 22:53:43
(UTC-05:00)

Daily predictions for brighter satellites

Satellite Brightness Start Highest point End
(mag) Time Altitude Azimuth Time Altitude Azimuth Time Altitude Azimuth
Cosmos 1908 Rocket 4.3 17:45:42 10° NNE 17:49:34 31° E 17:53:25 10° SE
Cosmos 2233 Rocket 4.0 17:43:38 10° S 17:49:52 75° E 17:56:05 10° N
CENTAUR R/B 4.2 17:45:39 10° WSW 17:50:47 29° NW 17:56:29 10° N
Cosmos 1733 Rocket 3.1 17:46:28 10° N 17:50:56 90° SE 17:55:22 10° S
Cosmos 2278 Rocket 2.4 17:45:30 10° SSW 17:51:10 82° WNW 17:56:53 10° NNE
ALOS 3.8 17:50:34 10° E 17:53:01 14° ENE 17:55:28 10° NE
Meteor 1-26 Rocket 4.3 17:48:04 10° S 17:53:41 86° W 17:59:15 10° N
BREEZE-M DEB (TANK) 2.6 17:54:01 10° WSW 17:56:09 39° NW 17:58:22 10° NE
CORIOLIS 4.3 17:51:35 10° SSE 17:56:53 56° ENE 18:02:12 10° N
Cosmos 1862 Rocket 4.4 17:53:27 10° SSW 17:57:46 56° W 18:02:09 10° N
AQUARIUS 4.1 17:55:39 10° SSE 18:00:06 70° ENE 18:04:35 10° N
COSMOS 2455 4.2 17:54:49 10° SW 18:00:22 39° WNW 18:05:58 10° N
SMAP 3.0 17:56:23 10° SSE 18:01:01 74° ENE 18:05:38 10° N
ERBS 2.4 17:58:16 10° NNW 18:01:35 52° NE 18:04:56 10° SE
CZ-4 R/B 1.3 18:02:23 10° SSE 18:06:13 59° ENE 18:10:00 10° N
Sich 1 Rocket 4.0 18:02:14 10° N 18:06:26 41° E 18:10:39 10° SSE
Meteor 1-28 Rocket 3.4 18:07:15 10° N 18:10:56 72° WNW 18:14:37 10° SSW
Cosmos 1606 2.7 18:08:24 10° S 18:12:06 57° E 18:15:49 10° NNE
Okean 1-7 3.3 18:08:30 10° SSE 18:12:39 46° E 18:16:52 10° NNE
Chunghua 1 4.4 18:09:22 10° WNW 18:13:05 75° N 18:16:08 14° E
Cosmos 1484 Rocket 3.2 18:10:29 10° S 18:14:16 68° W 18:18:09 10° NNW
BREEZE-M R/B 3.9 18:16:20 10° NNW 18:18:53 23° NE 18:20:54 17° E
CZ-4C R/B 4.2 18:16:40 10° N 18:21:29 18° NE 18:24:02 16° ENE
Landsat 4 3.9 18:18:43 10° N 18:22:30 73° WNW 18:26:17 10° SSW
EO 1 Del DPAF 3.2 18:21:17 10° NNE 18:25:05 66° ESE 18:28:52 10° S
Meteor 2-6 Rocket 4.1 18:23:48 10° S 18:29:08 63° E 18:34:35 10° NNE
Cosmos 1763 Rocket 3.9 18:27:01 10° NNW 18:32:09 65° WSW 18:37:11 10° S
CZ-3A R/B 4.0 18:20:49 10° NW 18:33:25 51° NE 18:38:16 14° ESE
METEOR-M 4.0 18:28:24 10° SSE 18:33:41 71° ENE 18:39:00 10° N
Cosmos 1782 Rocket 3.5 18:29:52 10° N 18:34:10 60° E 18:38:28 10° SSE
YAOGAN 1 2.6 18:30:59 10° SSE 18:35:18 86° WSW 18:39:39 10° NNW
Cosmos 2082 Rocket 2.5 18:30:23 10° N 18:35:45 42° ENE 18:41:04 10° SE
Cosmos 1782 3.2 18:33:12 10° SSW 18:37:12 64° W 18:41:11 10° N
Meteor 1-20 Rocket 4.3 18:33:57 10° N 18:39:28 78° W 18:44:55 10° S
COSMO-SKYMED 1 2.7 18:35:16 10° N 18:39:36 78° WNW 18:43:56 10° SSW
Cosmos 1602 4.3 18:38:14 10° NNE 18:41:46 34° E 18:45:17 10° SSE
ERS-2 2.1 18:39:51 10° SSE 18:43:31 84° WSW 18:47:13 10° NNW
Cosmos 405 Rocket 2.5 18:41:15 10° S 18:45:04 72° E 18:47:47 18° NNE
SL-27 R/B 2.6 18:45:39 10° NNW 18:48:58 67° WSW 18:52:18 10° S
Cosmos 2221 Rocket 4.0 18:48:05 10° SSW 18:52:27 62° W 18:56:48 10° N
OAO 3 Rocket 3.3 18:47:35 10° WSW 18:52:28 68° SSE 18:54:18 38° E
Cosmos 2034 Rocket 3.9 18:46:36 10° S 18:52:56 74° E 18:59:17 10° N
Nadezhda 4 Rocket 4.3 18:48:06 10° N 18:53:49 40° E 18:59:29 10° SSE
Cosmos 44 Rocket 4.2 18:51:34 10° N 18:55:05 29° NE 18:55:05 29° NE
Cosmos 968 Rocket 3.5 18:50:56 10° S 18:55:57 58° ESE 18:58:25 29° NE
GPS 2-05 Rocket1 2.4 18:52:57 10° WSW 18:56:08 83° NNW 18:56:14 81° NNE
Cosmos 540 Rocket 3.3 18:53:30 10° NNW 18:58:41 79° ENE 19:03:49 10° SSE
Meteor 1-27 Rocket 3.7 18:52:55 10° S 18:58:46 74° E 19:04:41 10° NNE
USA 234 3.6 18:55:35 17° NNE 19:00:44 61° NW 19:07:08 10° WSW
Tiangong 1 2.4 19:01:20 10° SW 19:02:49 30° SW 19:02:49 30° SW
OAO 3 Copernicus 4.2 19:00:01 10° WNW 19:05:07 87° N 19:06:29 49° E
Cosmos 292 Rocket 3.7 19:01:35 10° N 19:06:15 54° ENE 19:06:28 53° E
Cosmos 836 Rocket 4.5 19:03:58 10° NNW 19:09:14 85° WSW 19:14:31 10° SSE
Meteor 2-20 4.3 19:05:45 10° N 19:11:50 74° E 19:17:52 10° SSE
FENGYUN 3A 3.7 19:08:25 10° S 19:13:49 82° WSW 19:19:15 10° NNW
Okean 2 Rocket 3.4 19:11:44 10° NNW 19:16:14 67° W 19:20:41 10° S
Cosmos 44 3.8 19:19:31 10° NNW 19:22:55 44° N 19:22:55 44° N
Cosmos 2369 Rocket 3.3 19:22:24 10° S 19:25:17 28° SSE 19:25:17 28° SSE
ALOS 3.3 19:25:32 10° S 19:30:00 46° W 19:34:30 10° NNW
Cosmos 1833 Rocket 3.2 19:26:03 10° NNW 19:31:34 59° WSW 19:37:04 10° S
Meteor 1-11 Rocket 4.1 19:37:18 10° NNW 19:43:02 63° W 19:48:38 10° S
Gblst 52 Del rocket 4.1 19:37:37 10° SW 19:42:56 83° WSW 19:42:56 83° WSW
USA 229 DEB 3.6 19:40:05 10° SSW 19:46:49 85° WNW 19:47:41 70° NNE
USA 229 3.5 19:40:11 10° SSW 19:46:55 86° WNW 19:47:43 71° NNE
CZ-4C R/B 3.2 20:03:29 10° NNW 20:09:18 59° NNW 20:09:18 59° NNW
Cosmos 2082 Rocket 4.5 20:15:20 10° NW 20:19:28 21° W 20:23:33 10° SSW
